AirNav   Pilot Hours Calculator
 
 1027 users online  

CYQG Windsor Airport
Windsor, Ontario, Canada

GOING TO WINDSOR?


FAA INFORMATION EFFECTIVE 09 SEPTEMBER 2021

The information below comes from the U.S. Federal Aviation Administration (FAA). The FAA is not the official source of data for facilities located outside the United States, and THESE RECORDS ARE LIKELY NOT COMPLETE OR CORRECT.

Location

FAA Identifier: CYQG
Lat/Long: 42-16-33.1111N 082-57-27.5347W
42-16.551852N 082-57.458912W
42.2758642,-82.9576485
(estimated)
Elevation: 622 ft. / 190 m (estimated)
Variation: 07W ()
Time zone: UTC -4 (UTC -5 during Standard Time)
Zip code: 48243

Airport Operations

Airport use: Open to the public
Activation date: 03/2005
Control tower: no
ARTCC: CLEVELAND CENTER
FSS: LONDON FIC FLIGHT SERVICE STATION
Attendance: 
Segmented circle: no

Airport Communications

WX ASOS at DET (8 nm N): PHONE 313-371-9696
WX AWOS-3 at ONZ (14 nm SW): 119.675 (734-692-9686)
WX ASOS at DTW (18 nm W): PHONE 734-955-5015
WX AWOS-3 at VLL (19 nm NW): 119.475 (248-288-4649)

Nearby radio navigation aids

VOR radial/distance  VOR name  Freq  Var
DXOr084/18.6DETROIT VOR/DME113.4006W
CRLr061/26.1CARLETON VOR/DME115.7003W
SVMr109/29.3SALEM VORTAC114.3003W

 
NDB name  Hdg/Dist  Freq  Var  ID
GROSSE ILE047/13.641907WRYS .-. -.-- ...

Airport Services

Runway Information

Runway 7/25

Dimensions: 9000 x 200 ft. / 2743 x 61 m
Surface: asphalt
RUNWAY 7  RUNWAY 25
Latitude: 42-16.404018N42-17.086803N
Longitude: 082-58.209487W082-56.438652W
Elevation: 622.0 ft.608.0 ft.
Traffic pattern: leftleft
Runway heading: 070 magnetic, 063 true250 magnetic, 243 true
Displaced threshold: 901 ft.1143 ft.
Touchdown point: yes, no lightsyes, no lights

Runway 12/30

Dimensions: 5150 x 150 ft. / 1570 x 46 m
Surface: asphalt
RUNWAY 12  RUNWAY 30
Latitude: 42-16.396830N42-16.030400N
Longitude: 082-58.209295W082-57.179820W
Elevation: 622.0 ft.619.0 ft.
Traffic pattern: leftleft
Runway heading: 123 magnetic, 116 true303 magnetic, 296 true
Displaced threshold: 570 ft.321 ft.
Touchdown point: yes, no lightsyes, no lights

Airport Ownership and Management from official FAA records

Ownership: Publicly-owned

Additional Remarks

FOR CD CTC DETROIT APCH AT 800-499-8181.

Instrument Procedures

There are no published instrument procedures at CYQG.

Some nearby airports with instrument procedures:

KDET - Coleman A Young Municipal Airport (8 nm N)
KONZ - Grosse Ile Municipal Airport (14 nm SW)
KDTW - Detroit Metro Wayne County Airport (18 nm W)
KVLL - Oakland/Troy Airport (19 nm NW)
KMTC - Selfridge Air National Guard Base (21 nm N)
 
Loc | Ops | Rwys | IFR | FBO | Links
Com | Nav | Svcs | Stats | Notes
Aerial photo
No photo
 
Airport distance calculator
Flying to Windsor Airport? Find the distance to fly.

From to CYQG

Sunrise and sunset
Times for 25-Sep-2021
 Local
(UTC-4)
 Zulu
(UTC)
Morning civil twilight06:5510:55
Sunrise07:2311:23
Sunset19:2423:24
Evening civil twilight19:5223:52

Current date and time
Zulu (UTC)  25-Sep-2021 18:54:12
Local (UTC-4)  25-Sep-2021 14:54:12
 
METAR
CYQG 251800Z AUTO 30013G18KT 9SM CLR 17/09 A2995 RMK SLP144 DENSITY ALT 1000FT
KDET 
8nm N 
251753Z 32010G17KT 10SM CLR 17/08 A2995 RMK AO2 SLPNO 60009 T01720078 10172 20139 53001
KONZ 
14nm SW 
251835Z AUTO 30011G14KT 10SM BKN046 BKN110 18/04 A2997 RMK AO2 T01780037 P0003
CXHA 
15nm S 
251800Z AUTO 29009G15KT 16/08 RMK AO1 2004 SLP141 T01620083 50009
KDTW 
17nm W 
251753Z 31009KT 10SM SCT040 SCT230 17/08 A2997 RMK AO2 SLP148 60018 T01670078 10172 20128 53002
KVLL 
19nm NW 
251835Z AUTO 27012G19KT 10SM SCT044 19/07 A2997 RMK AO2 T01850066
TAF
CYQG 251739Z 2518/2618 27012G22KT P6SM BKN020 TEMPO 2518/2519 BKN030 FM251900 27012G22KT P6SM BKN030 FM252300 26010KT P6SM SCT040 FM260200 24006KT P6SM FEW080 BECMG 2615/2617 23010G20KT BKN100 RMK FCST BASED ON AUTO OBS. NXT FCST BY 260000Z
KDET 
8nm N 
251724Z 2518/2618 27011G19KT P6SM SCT040 BKN050 FM252300 26006KT P6SM SCT070 SCT200 FM260500 22009KT P6SM SCT080 BKN120 FM261600 24012G22KT P6SM BKN100
KDTW 
17nm W 
251724Z 2518/2624 27011G19KT P6SM SCT040 BKN050 FM252300 26006KT P6SM SCT070 SCT200 FM260500 22009KT P6SM SCT080 BKN120 FM261600 24012G22KT P6SM BKN100
NOTAMs
Click for the latest NOTAMs
NOTAMs are issued by the DoD/FAA and will open in a separate window not controlled by AirNav.

 

 
 

FBO, Fuel Providers, and Aircraft Ground Support

  
 Business Name 
 
 Contact 
 
 Services / Description 
 
Fuel Prices
 
Comments
  
Gateway Aviation Windsor 519-971-1462
no information available

If you are affiliated with Gateway Aviation Windsor and would like to show here your services, contact info, web link, logo, and more, click here
100LL Jet A
FS $7.86 $5.31 
 Updated 12-Aug-2021
 
   write
FS=Full service
Update Fuel Prices
 

Would you like to see your business listed on this page?

 If your business provides an interesting product or service to pilots, flight crews, aircraft, or users of the Windsor Airport, you should consider listing it here.  To start the listing process, click on the button below
 
Add a business
 

Other Pages about Windsor Airport

Update a link
 
Copyright © AirNav, LLC. All rights reserved. Privacy Policy  Contact